JA1CAY-13 Weather Reports


time (UTC)temp
C
wind
direction
speed
KPH
gust
KPH
rain 1hr
cm
rain 24hr
cm
rain mn
cm
humidity
%
barometer
mb
20260505123025 14 318 1.6 8.0 0.00 0.00 0.00 61 1021.9
20260505122125 15 333 1.6 8.0 0.00 0.00 0.00 60 1021.8
20260505120325 15 293 0.0 4.8 0.00 0.00 0.00 61 1021.8
20260505115425 15 304 4.8 8.0 0.00 0.00 0.00 60 1021.7
20260505114525 15 323 4.8 9.7 0.00 0.00 0.00 58 1021.5
20260505113625 16 319 1.6 8.0 0.00 0.00 0.00 56 1021.3
20260505112725 16 299 1.6 8.0 0.00 0.00 0.00 53 1021.3
20260505111826 16 240 3.2 12.9 0.00 0.00 0.00 52 1021.0
20260505101525 17 219 8.0 22.5 0.00 0.00 0.00 50 1019.8
20260505100625 17 218 8.0 17.7 0.00 0.00 0.00 51 1019.7
20260505095725 17 219 6.4 16.1 0.00 0.00 0.00 50 1019.4
20260505094825 17 212 6.4 20.9 0.00 0.00 0.00 50 1019.3
20260505093025 18 215 9.7 22.5 0.00 0.00 0.00 50 1019.0
20260505092125 18 224 8.0 24.1 0.00 0.00 0.00 49 1018.8
20260505091225 18 213 6.4 17.7 0.00 0.00 0.00 50 1018.6
20260505090326 19 215 9.7 19.3 0.00 0.00 0.00 49 1018.4
20260505085425 19 212 8.0 22.5 0.00 0.00 0.00 49 1018.3
20260505084525 20 217 9.7 24.1 0.00 0.00 0.00 49 1018.1
20260505083625 20 218 11.3 20.9 0.00 0.00 0.00 48 1018.0
20260505082725 20 217 9.7 25.7 0.00 0.00 0.00 47 1017.9
20260505080925 20 216 9.7 22.5 0.00 0.00 0.00 47 1017.8
20260505080025 20 222 11.3 24.1 0.00 0.00 0.00 46 1017.7
20260505075125 21 218 12.9 25.7 0.00 0.00 0.00 46 1017.6
20260505074225 21 217 12.9 29.0 0.00 0.00 0.00 45 1017.5
20260505073325 21 221 12.9 22.5 0.00 0.00 0.00 44 1017.4
20260505072425 21 225 11.3 25.7 0.00 0.00 0.00 43 1017.4
20260505071525 21 226 11.3 22.5 0.00 0.00 0.00 42 1017.2
20260505070625 22 218 11.3 24.1 0.00 0.00 0.00 42 1017.1
20260505065725 22 228 11.3 22.5 0.00 0.00 0.00 42 1017.0
20260505064825 22 231 9.7 24.1 0.00 0.00 0.00 40 1017.0
20260505063925 23 224 9.7 20.9 0.00 0.00 0.00 39 1017.0
20260505063025 23 222 9.7 20.9 0.00 0.00 0.00 38 1016.9
20260505062125 23 231 9.7 19.3 0.00 0.00 0.00 37 1016.8
20260505061225 24 214 6.4 17.7 0.00 0.00 0.00 35 1016.7
20260505060325 24 196 6.4 16.1 0.00 0.00 0.00 31 1016.7
20260505055426 24 227 4.8 12.9 0.00 0.00 0.00 29 1016.6
20260505054525 23 201 6.4 19.3 0.00 0.00 0.00 27 1016.8
20260505053625 24 215 6.4 12.9 0.00 0.00 0.00 23 1016.8
20260505052725 24 208 3.2 11.3 0.00 0.00 0.00 22 1016.8
20260505050925 24 178 3.2 9.7 0.00 0.00 0.00 18 1016.9
20260505041525 25 357 4.8 12.9 0.00 0.00 0.00 22 1017.7
20260505040624 23 302 9.7 19.3 0.00 0.00 0.00 24 1017.8
20260505035725 23 271 3.2 14.5 0.00 0.00 0.00 22 1017.8
20260505034825 23 228 3.2 12.9 0.00 0.00 0.00 22 1017.9
20260505033925 23 201 3.2 12.9 0.00 0.00 0.00 24 1018.0
20260505033025 23 41 1.6 4.8 0.00 0.00 0.00 22 1018.1
20260505031226 21 208 1.6 9.7 0.00 0.00 0.00 25 1018.3
20260505030325 21 266 1.6 9.7 0.00 0.00 0.00 26 1018.4
20260505025426 21 150 4.8 12.9 0.00 0.00 0.00 24 1018.4
20260505024525 21 128 4.8 12.9 0.00 0.00 0.00 26 1018.5
20260505023625 21 193 4.8 12.9 0.00 0.00 0.00 25 1018.4
20260505022725 20 179 3.2 9.7 0.00 0.00 0.00 26 1018.6
20260505021825 20 165 6.4 14.5 0.00 0.00 0.00 26 1018.8
20260505020025 20 135 3.2 11.3 0.00 0.00 0.00 28 1018.9
20260505015125 20 153 3.2 8.0 0.00 0.00 0.00 28 1019.0
20260505014226 19 190 3.2 9.7 0.00 0.00 0.00 28 1019.0
20260505013325 20 191 3.2 11.3 0.00 0.00 0.00 29 1019.0
20260505012425 19 199 1.6 6.4 0.00 0.00 0.00 29 1019.1
20260505011525 19 67 3.2 8.0 0.00 0.00 0.00 30 1019.2
20260505010625 18 55 1.6 8.0 0.00 0.00 0.00 33 1019.2
20260505005726 17 117 0.0 1.6 0.00 0.00 0.00 32 1019.3
20260505004825 17 223 1.6 6.4 0.00 0.00 0.00 34 1019.3
20260505003926 17 208 3.2 11.3 0.00 0.00 0.00 34 1019.4
20260505003024 17 187 1.6 8.0 0.00 0.00 0.00 35 1019.2
20260505002124 17 272 3.2 11.3 0.00 0.00 0.00 37 1019.2
20260505001224 16 223 3.2 9.7 0.00 0.00 0.00 36 1019.3
20260504235425 17 78 1.6 8.0 0.00 0.00 0.00 37 1019.4
20260504234526 16 36 1.6 11.3 0.00 0.00 0.00 42 1019.4
20260504233625 16 86 3.2 11.3 0.00 0.00 0.00 39 1019.4
20260504232725 16 95 3.2 11.3 0.00 0.00 0.00 41 1019.5
20260504231825 15 156 3.2 9.7 0.00 0.00 0.00 41 1019.6
20260504230925 15 118 3.2 9.7 0.00 0.00 0.00 43 1019.7
20260504225126 14 155 4.8 12.9 0.00 0.00 0.00 46 1019.5
20260504224225 13 171 4.8 11.3 0.00 0.00 0.00 47 1019.4
20260504223325 14 144 6.4 11.3 0.00 0.00 0.00 47 1019.4
20260504222425 14 162 3.2 9.7 0.00 0.00 0.00 47 1019.2
20260504221525 13 132 1.6 6.4 0.00 0.03 0.00 49 1019.2
20260504220625 13 139 1.6 6.4 0.00 0.03 0.00 48 1019.1
20260504215724 13 0 0.0 0.0 0.00 0.03 0.00 50 1019.1
20260504214825 12 214 0.0 6.4 0.00 0.03 0.00 50 1019.0
20260504213925 12 178 0.0 3.2 0.00 0.03 0.00 50 1018.9
20260504213025 12 155 0.0 3.2 0.00 0.08 0.00 53 1018.7
20260504212125 11 168 1.6 6.4 0.00 0.08 0.00 54 1018.7
20260504211225 11 197 1.6 6.4 0.00 0.08 0.00 52 1018.4
20260504210325 10 278 0.0 6.4 0.00 0.08 0.00 51 1018.2
20260504204525 10 0 0.0 0.0 0.00 0.10 0.00 53 1017.8
20260504203625 9 310 1.6 4.8 0.00 0.10 0.00 55 1017.6
20260504202726 9 314 1.6 4.8 0.00 0.10 0.00 53 1017.3
20260504201825 10 295 0.0 3.2 0.00 0.10 0.00 54 1017.2
20260504200925 10 296 4.8 11.3 0.00 0.13 0.00 55 1016.9
20260504200025 10 311 4.8 12.9 0.00 0.13 0.00 52 1016.7
20260504195125 11 333 6.4 12.9 0.00 0.13 0.00 44 1016.5
20260504194225 11 357 9.7 17.7 0.00 0.15 0.00 43 1016.3
20260504193325 11 355 9.7 19.3 0.00 0.18 0.00 43 1016.2
20260504192425 11 4 11.3 19.3 0.00 0.20 0.00 44 1015.8
20260504191525 11 4 11.3 20.9 0.00 0.23 0.00 44 1015.7
20260504190625 11 2 12.9 20.9 0.00 0.28 0.00 45 1015.5
20260504184825 11 8 14.5 24.1 0.00 0.41 0.00 47 1015.1
20260504183025 12 19 16.1 33.8 0.00 0.53 0.00 47 1014.4
20260504182125 12 15 17.7 33.8 0.00 0.61 0.00 47 1014.1
20260504181225 12 9 17.7 35.4 0.00 0.74 0.00 48 1013.8
20260504180325 12 16 17.7 35.4 0.00 0.76 0.00 48 1013.6
20260504175425 12 7 17.7 37.0 0.00 0.81 0.00 49 1013.6
20260504174525 12 8 20.9 40.2 0.00 0.91 0.00 50 1013.2
20260504173625 12 8 22.5 37.0 0.00 0.97 0.00 50 1012.9
20260504171825 12 353 20.9 40.2 0.00 1.07 0.00 51 1012.3
20260504170925 13 7 25.7 43.5 0.00 1.12 0.00 51 1011.9
20260504150325 15 352 27.4 45.1 0.00 1.32 0.00 45 1009.0
20260504130625 16 359 27.4 51.5 0.00 1.40 1.32 40 1006.1